{"data":{"norad_id":59397,"epoch":"2026-05-25T00:22:47.021664Z","epoch_age_seconds":63787,"freshness":"FRESH","line1":"1 59397U 24062X   26145.01582201 -.00000043  00000+0  10674-4 0  9993","line2":"2 59397  53.1610 261.3915 0001481  88.8037 271.3133 15.30190698121305","mean_motion":15.30190698,"eccentricity":0.0001481,"inclination_deg":53.161,"raan_deg":261.3915,"arg_perigee_deg":88.8037,"mean_anomaly_deg":271.3133,"bstar":1.0674e-5,"rev_number":12130,"period_min":94.105917771041,"perigee_km":474.22785810048,"apogee_km":476.25782921017,"semimajor_km":6853.3798436553,"source":"CELESTRAK","updated_at":"2026-05-25T13:38:18.938355Z"}}